This is the latest recevied weather packets stored in our database for station/object KQ7A. If no packets are shown the sender has not sent any weather packets the latest 1 day(s).
| Time | Temp. | Humidity | Pressure | Rain* | Wind** | Luminosity | Snow |
|---|---|---|---|---|---|---|---|
| 1778023333 | 18.89° C | 47% | 1014.3 hPa | 0 mm | 0.45 m/s, 342° | 535 W/m² | - |
| 1778023029 | 18.33° C | 46% | 1014.1 hPa | 0 mm | 0.89 m/s, 332° | 551 W/m² | - |
| 1778022728 | 17.78° C | 45% | 1014.3 hPa | 0 mm | 0.45 m/s, 258° | 557 W/m² | - |
| 1778022426 | 18.33° C | 48% | 1014.5 hPa | 0 mm | 0.45 m/s, 260° | 563 W/m² | - |
| 1778022122 | 18.33° C | 47% | 1014.4 hPa | 0 mm | 1.34 m/s, 44° | 620 W/m² | - |
| 1778021819 | 18.33° C | 53% | 1014.7 hPa | 0 mm | 0.89 m/s, 357° | 622 W/m² | - |
| 1778021516 | 17.78° C | 50% | 1014.6 hPa | 0 mm | 1.79 m/s, 28° | 648 W/m² | - |
| 1778021211 | 17.78° C | 47% | 1014.6 hPa | 0 mm | 2.24 m/s, 12° | 626 W/m² | - |
| 1778020909 | 17.78° C | 57% | 1014.4 hPa | 0 mm | 0.45 m/s, 7° | 642 W/m² | - |
| 1778020606 | 17.78° C | 49% | 1014.5 hPa | 0 mm | 0.89 m/s, 278° | 642 W/m² | - |
| 1778020302 | 17.78° C | 49% | 1014.6 hPa | 0 mm | 0.89 m/s, 313° | 647 W/m² | - |
| 1778019993 | 17.22° C | 54% | 1014.7 hPa | 0 mm | 0.89 m/s, 66° | 658 W/m² | - |
| 1778019689 | 17.78° C | 50% | 1014.6 hPa | 0 mm | 0.45 m/s, 63° | 672 W/m² | - |
| 1778019386 | 17.22° C | 48% | 1014.7 hPa | 0 mm | 0.45 m/s, 245° | 666 W/m² | - |
| 1778019083 | 16.67° C | 54% | 1014.7 hPa | 0 mm | 1.34 m/s, 73° | 607 W/m² | - |
| 1778018781 | 16.67° C | 51% | 1014.8 hPa | 0 mm | 1.34 m/s, 355° | 632 W/m² | - |
| 1778018478 | 16.11° C | 56% | 1014.7 hPa | 0 mm | 1.34 m/s, 25° | 678 W/m² | - |
| 1778018176 | 16.67° C | 57% | 1014.6 hPa | 0 mm | 1.79 m/s, 50° | 684 W/m² | - |
| 1778017873 | 16.67° C | 56% | 1015 hPa | 0 mm | 0.89 m/s, 45° | 731 W/m² | - |
| 1778017571 | 16.67° C | 56% | 1015.2 hPa | 0 mm | 0.89 m/s, 53° | 701 W/m² | - |
| 1778017268 | 16.67° C | 55% | 1014.8 hPa | 0 mm | 1.79 m/s, 0° | 702 W/m² | - |
| 1778016966 | 16.11° C | 61% | 1015 hPa | 0 mm | 0.89 m/s, 342° | 700 W/m² | - |
| 1778016662 | 16.11° C | 55% | 1015.2 hPa | 0 mm | 1.79 m/s, 2° | 708 W/m² | - |
| 1778016358 | 16.11° C | 62% | 1015.2 hPa | 0 mm | 1.79 m/s, 74° | 714 W/m² | - |
| 1778016065 | 15.56° C | 60% | 1015.2 hPa | 0 mm | 0.89 m/s, 129° | 711 W/m² | - |
* Rain latest hour (hover to see other rain measurements)
** Current wind speed in m/s (hover to see current wind gust speed)